Location: Dalton Gardens
(47.7327°N, 116.7697°W)
Time: 02:57:56
(UTC+00:00)

BlueWalker 3 - Pass Details

Date: 02 December 2022
Orbit: 499 x 517 km, 53.2° (Epoch: 26 January)

Event Time Altitude Azimuth Distance (km) Brightness Sun altitude
Rises 01:39:32 0° 280° (W) 2,632 6.8 -16.6°
Reaches altitude 10° 01:41:53 10° 289° (WNW) 1,741 5.5 -16.9°
Maximum altitude 01:45:32 36° 357° (N) 827 2.9 -17.5°
Enters shadow 01:46:30 31° 29° (NNE) 918 2.9 -17.7°
